カタログに戻る

STARLINK-5574

運用中通信VLEO
NORAD 55362·PAYLOAD·🇺🇸 United States

打ち上げ Jan 26, 2023 から Cape Canaveral Space Force Station

Loading…

次のパス (今後24時間)

TLE

最新Source: CelesTrak SupGP

元期: Sep 15, 2026, 02:25 UTC

1 55362C 23013AH  26258.10118056  .00027438  00000+0  99384-3 0  2582
2 55362  43.0034 298.8230 0001560 297.3694  58.8252 15.27562943    16

AllMySatでSTARLINK-5574をリアルタイム追跡

Download on the App Store